STARLINK-2576, 48400

Orbit data source: Space-Track

STARLINK-2576, 48400 is a payload satellite owned by SpaceX/Seattle (US) in LEO that was launched on Tue, 04 May 2021 UTC via an FALCON 9 launch vehicle from the Air Force Eastern Test Range (AFETR). Payload-class satellites include a variety of spacecraft equipped with specific instruments for various scientific and technological missions. These include communications satellites like Starlink; space stations such as the ISS; scientific satellites like the Hubble; Earth observation satellites from companies like Planet Labs, Umbra, and HawkEye 360; GPS; miniature CubeSats for education and research; and military/defense satellites.

Loading next visibility...
Identifier
48400, 2021-038AZ
Orbit
LEO
Country
Flag of USUS
Related business
Manufacturer
SpaceX/Seattle
Mission
Operational Commercial Communications
Bus & Motor
STARLINK, Unknown motor
Mass
260 kg wet, ~248 kg dry
Launch date (UTC)
2021-05-04 (5 years ago)
Launch vehicle
FALCON 9
Launch site
Air Force Eastern Test Range (AFETR)
Object type
Payload
Rocket body
Debris
Shape & HBR
Box + 1 Pan, 10.1 m
Radar Cross Section
13.562 m², Large (>1 m²)

Expand to show TLE details & history
Last TLE update: 2 days ago

TLE from 2 days ago
0 STARLINK-2576
1 48400U 21038AZ  26171.38649971  .00008751  00000-0  29367-3 0  9995
2 48400  53.1599 215.0985 0001270  85.6481 274.4665 15.31672025283179
Epoch: 2026-06-20T09:16Z
TLE epoch observation values (Epoch: 2026-06-20T09:16:33.574Z)
Latitude
-0.00008°
Longitude
167.35668°
Altitude
471.656 km
Speed
7.631 km/s
True Right ascension
14h 20m 23s
True Declination
0° 00' 00"
Sunlit
Object was in full shadow at epoch
Visualization orbit readout
Latitude
Unknown
Longitude
Unknown
Altitude
Unknown
Speed
Unknown
Apparent Right ascension
Unknown
Apparent Declination
Unknown
Sunlit
N/A
Visualization observer readout
Local Sidereal Time
21:28:17
Azimuth
Unknown
Elevation
Unknown
Doppler factor
Unknown
Orbital elements
Apogee altitude
471.95 km
Perigee altitude
470.21 km
Semi-major axis
6,849.217 km
Eccentricity
0.00013
Inclination
53.1599°
RAAN
215.0985°
Arg. of periapsis
85.6481°
True anomaly
274.45199°
Mean anomaly
274.4665°
Eccentric anomaly
274.45925°
Mean motion
3.82897 °/min
Orbital period
94.02 mins
BSTAR
0.00029367
Loading maneuver chart data...
Computing Atmospheric mass density...

Documentation

Showing up to 5 results
|